Stations météo

réclame
Mon MeteoGroup
Glen Ogle, Grande-Bretagne (3148): Température de l'air & dewpoint: 12.01.2020 01:00:00 - 18.01.2020 01:00:00 (GMT)Glen Ogle, Grande-Bretagne (3148): Vitesse du vent & gusts: 12.01.2020 01:00:00 - 18.01.2020 01:00:00 (GMT)Glen Ogle, Grande-Bretagne (3148): Direction du vent: 12.01.2020 01:00:00 - 18.01.2020 01:00:00 (GMT)
Date & Time tt [°C] td [°C] ff [km/h] ff [knt] fx [km/h] fx [knt] dd
18.01.2020 01:00:00 -0,2 -2,1 31 17 54 29 WNW
18.01.2020 00:00:00 -0,1 -1,2 35 19 59 32 W
17.01.2020 23:00:00 -0,8 -0,8 31 17 - - W
17.01.2020 22:00:00 -0,7 -1,1 34 18 55 30 W
17.01.2020 21:00:00 0,1 -1,2 42 23 59 32 W
17.01.2020 20:00:00 0,5 -0,8 44 24 55 30 W
17.01.2020 19:00:00 0,3 0,1 41 22 59 32 W
17.01.2020 18:00:00 1,0 0,4 42 23 61 33 WNW
17.01.2020 17:00:00 1,1 0,6 34 18 59 32 WNW
17.01.2020 16:00:00 1,4 0,6 34 18 46 25 W
17.01.2020 15:00:00 1,4 0,4 31 17 - - W
17.01.2020 14:00:00 1,4 0,7 24 13 - - W
17.01.2020 13:00:00 1,4 0,4 22 12 48 26 WSW
17.01.2020 12:00:00 1,6 -0,2 31 17 48 26 SW
17.01.2020 11:00:00 1,1 -0,2 37 20 52 28 SW
17.01.2020 10:00:00 1,4 -1,2 26 14 46 25 SW
17.01.2020 09:00:00 1,1 -1,3 18 10 50 27 SSW
17.01.2020 08:00:00 1,4 -1,0 31 17 50 27 SW
17.01.2020 07:00:00 1,4 -0,3 31 17 50 27 SSW
17.01.2020 06:00:00 1,7 -0,3 31 17 54 29 SSW
17.01.2020 05:00:00 1,7 0,0 34 18 54 29 SSW
17.01.2020 04:00:00 1,7 0,2 31 17 - - SSW
17.01.2020 03:00:00 2,1 -0,1 31 17 57 31 SW
17.01.2020 02:00:00 1,9 0,8 34 18 57 31 SSW
17.01.2020 01:00:00 1,9 1,3 34 18 57 31 SSW
17.01.2020 00:00:00 2,3 1,9 29 16 63 34 SSW
16.01.2020 23:00:00 2,6 1,9 39 21 68 37 S
16.01.2020 22:00:00 3,4 1,4 41 22 74 40 SSW
16.01.2020 21:00:00 3,8 1,3 44 24 78 42 SSW
16.01.2020 20:00:00 4,7 2,2 35 19 80 43 SW
16.01.2020 19:00:00 6,0 6,0 52 28 91 49 S
16.01.2020 18:00:00 5,1 5,1 63 34 78 42 S
16.01.2020 17:00:00 3,8 3,8 46 25 74 40 SSE
16.01.2020 16:00:00 2,6 2,6 46 25 72 39 SE
16.01.2020 15:00:00 2,7 2,6 50 27 74 40 SE
16.01.2020 14:00:00 3,6 2,6 48 26 67 36 SSE
16.01.2020 13:00:00 3,7 2,7 41 22 81 44 SSE
16.01.2020 12:00:00 4,0 3,3 68 37 98 53 S
16.01.2020 11:00:00 3,8 3,8 74 40 98 53 S
16.01.2020 10:00:00 4,2 4,2 67 36 94 51 S
16.01.2020 09:00:00 3,8 3,8 57 31 98 53 S
16.01.2020 08:00:00 3,5 3,4 68 37 102 55 S
16.01.2020 07:00:00 3,1 3,0 63 34 83 45 S
16.01.2020 06:00:00 2,6 2,3 48 26 74 40 S
16.01.2020 05:00:00 2,2 1,9 50 27 70 38 S
16.01.2020 04:00:00 2,1 1,4 46 25 65 35 SSW
16.01.2020 03:00:00 1,7 0,5 39 21 70 38 S
16.01.2020 02:00:00 1,8 -0,2 41 22 67 36 SSW
16.01.2020 01:00:00 2,0 -0,6 26 14 52 28 SSW
16.01.2020 00:00:00 2,3 -0,7 24 13 57 31 SSW
15.01.2020 23:00:00 2,4 -0,4 39 21 65 35 WSW
15.01.2020 22:00:00 2,6 -0,3 46 25 78 42 SW
15.01.2020 21:00:00 3,1 -0,9 44 24 91 49 SW
15.01.2020 20:00:00 3,2 -0,6 61 33 93 50 SW
15.01.2020 19:00:00 1,8 0,8 57 31 104 56 WSW
15.01.2020 18:00:00 3,1 0,9 55 30 102 55 SW
15.01.2020 17:00:00 2,6 1,0 54 29 100 54 SW
15.01.2020 16:00:00 2,3 0,9 54 29 104 56 SW
15.01.2020 15:00:00 2,2 1,0 57 31 106 57 SW
15.01.2020 14:00:00 2,2 0,9 55 30 113 61 SSW
15.01.2020 13:00:00 2,0 0,8 57 31 111 60 SW
15.01.2020 12:00:00 2,6 0,0 65 35 115 62 SSW
15.01.2020 11:00:00 1,9 0,2 54 29 100 54 SSW
15.01.2020 10:00:00 1,3 -0,1 68 37 102 55 SSW
15.01.2020 09:00:00 1,5 -0,9 52 28 81 44 SSW
15.01.2020 08:00:00 0,9 -0,8 44 24 76 41 SSW
15.01.2020 07:00:00 1,4 -1,6 54 29 94 51 SSW
15.01.2020 06:00:00 1,2 -1,4 50 27 89 48 SSW
15.01.2020 05:00:00 1,0 -1,5 50 27 89 48 SSW
15.01.2020 04:00:00 0,7 -1,6 57 31 98 53 SSW
15.01.2020 03:00:00 1,0 -2,5 59 32 94 51 SSW
15.01.2020 02:00:00 0,7 -2,5 52 28 91 49 SSW
15.01.2020 01:00:00 0,8 -2,5 55 30 87 47 SSW
15.01.2020 00:00:00 0,6 -2,3 55 30 87 47 SSW
14.01.2020 23:00:00 0,5 -2,6 52 28 94 51 SSW
14.01.2020 22:00:00 0,4 -2,0 54 29 91 49 SSW
14.01.2020 21:00:00 0,5 -2,1 46 25 80 43 SSW
14.01.2020 20:00:00 0,4 -1,7 42 23 76 41 SSW
14.01.2020 19:00:00 0,0 -1,9 37 20 72 39 SW
14.01.2020 18:00:00 -0,2 -0,4 41 22 61 33 S
14.01.2020 17:00:00 -0,4 -0,4 31 17 59 32 S
14.01.2020 16:00:00 -0,2 -0,2 39 21 55 30 S
14.01.2020 15:00:00 -0,2 -0,2 39 21 61 33 S
14.01.2020 14:00:00 0,4 -0,7 44 24 76 41 SSW
14.01.2020 13:00:00 0,7 -1,0 50 27 74 40 SSW
14.01.2020 12:00:00 0,4 -1,1 48 26 72 39 SSW
14.01.2020 11:00:00 0,2 -1,5 48 26 89 48 S
14.01.2020 10:00:00 0,3 -1,7 52 28 76 41 S
14.01.2020 09:00:00 0,2 -2,2 50 27 81 44 SSW
14.01.2020 08:00:00 -0,3 -2,6 52 28 78 42 SSW
14.01.2020 07:00:00 -0,3 -2,3 54 29 100 54 S
14.01.2020 06:00:00 -0,4 -2,5 48 26 98 53 SSW
14.01.2020 05:00:00 -0,1 -2,6 63 34 94 51 SSW
14.01.2020 04:00:00 -0,6 -2,0 55 30 87 47 SSW
14.01.2020 03:00:00 0,3 -2,9 63 34 94 51 SSW
14.01.2020 02:00:00 0,5 -2,9 59 32 104 56 SSW
14.01.2020 01:00:00 -0,6 -1,1 50 27 98 53 SW
14.01.2020 00:00:00 1,4 -1,2 52 28 98 53 SW
13.01.2020 23:00:00 1,5 0,1 52 28 100 54 SSW
13.01.2020 22:00:00 1,8 0,5 55 30 93 50 SSW
13.01.2020 21:00:00 3,0 1,4 63 34 104 56 SSW
13.01.2020 20:00:00 2,5 2,0 59 32 120 65 SSW
13.01.2020 19:00:00 2,3 2,2 68 37 111 60 S
13.01.2020 18:00:00 2,8 1,8 63 34 113 61 S
13.01.2020 17:00:00 1,6 1,6 85 46 128 69 S
13.01.2020 16:00:00 1,6 1,6 68 37 93 50 SSE
13.01.2020 15:00:00 1,6 1,6 65 35 94 51 SSE
13.01.2020 14:00:00 1,8 1,8 74 40 98 53 SSE
13.01.2020 13:00:00 1,9 1,8 67 36 102 55 SSE
13.01.2020 12:00:00 1,9 1,8 57 31 87 47 SSE
13.01.2020 11:00:00 1,8 1,1 57 31 87 47 SSE
13.01.2020 10:00:00 1,6 0,7 65 35 93 50 S
13.01.2020 09:00:00 1,2 0,4 68 37 98 53 S
13.01.2020 08:00:00 1,2 0,7 65 35 91 49 S
13.01.2020 07:00:00 1,0 0,9 57 31 78 42 S
13.01.2020 06:00:00 1,0 0,6 41 22 65 35 S
13.01.2020 05:00:00 1,0 0,2 41 22 78 42 S
13.01.2020 04:00:00 0,9 -0,2 42 23 67 36 SSW
13.01.2020 03:00:00 0,8 -0,6 39 21 67 36 SSW
13.01.2020 02:00:00 1,1 -1,2 46 25 70 38 SSW
13.01.2020 01:00:00 1,1 -1,3 42 23 61 33 SSW
13.01.2020 00:00:00 0,9 -0,6 35 19 63 34 SSW
12.01.2020 23:00:00 1,0 -0,7 31 17 59 32 S
12.01.2020 22:00:00 1,0 -0,5 34 18 48 26 SSW
12.01.2020 21:00:00 1,1 -0,9 35 19 59 32 SW
12.01.2020 20:00:00 1,0 -1,1 35 19 50 27 SW
12.01.2020 19:00:00 0,7 -1,3 28 15 - - SW
12.01.2020 18:00:00 0,6 -1,0 26 14 67 36 WSW
12.01.2020 17:00:00 -0,7 -0,7 46 25 74 40 W
12.01.2020 16:00:00 -0,3 -0,9 18 10 68 37 WSW
12.01.2020 15:00:00 0,7 -1,8 37 20 67 36 WSW
12.01.2020 14:00:00 -0,5 -1,0 16 9 52 28 W
12.01.2020 13:00:00 -0,1 -0,9 22 12 55 30 W
12.01.2020 12:00:00 -0,2 -0,3 18 10 - - W
12.01.2020 11:00:00 -0,2 -0,3 21 11 - - W
12.01.2020 10:00:00 -0,2 -0,2 26 14 54 29 W
12.01.2020 09:00:00 1,1 0,5 29 16 - - W
12.01.2020 08:00:00 0,0 0,0 13 7 - - W
12.01.2020 07:00:00 1,4 1,0 31 17 54 29 S
12.01.2020 06:00:00 1,4 0,4 34 18 54 29 SSW
12.01.2020 05:00:00 1,1 0,3 26 14 - - SSW
12.01.2020 04:00:00 1,2 -0,3 28 15 - - S
12.01.2020 03:00:00 1,1 -0,7 16 9 - - SSW
12.01.2020 02:00:00 1,1 0,3 16 9 - - W
12.01.2020 01:00:00 1,4 0,1 13 7 - - W

tt = Température de l'air
td = dewpoint
ff = Vitesse du vent
fx = gusts
dd = Direction du vent

stations d'obs. à proximité